TimeMST,TemperatureF,Dew PointF,Humidity,Sea Level PressureIn,VisibilityMPH,Wind Direction,Wind SpeedMPH,Gust SpeedMPH,PrecipitationIn,Events,Conditions,WindDirDegrees,DateUTC
12:53 AM,46.9,26.1,44,30.31,10.0,Calm,Calm,-,N/A,,Clear,0,2013-11-13 07:53:00
1:53 AM,44.1,26.1,49,30.30,10.0,WNW,9.2,-,N/A,,Clear,290,2013-11-13 08:53:00
2:53 AM,45.0,25.0,46,30.28,10.0,South,8.1,-,N/A,,Clear,190,2013-11-13 09:53:00
3:53 AM,44.1,25.0,47,30.29,10.0,Calm,Calm,-,N/A,,Clear,0,2013-11-13 10:53:00
4:53 AM,39.9,25.0,55,30.29,10.0,East,4.6,-,N/A,,Clear,100,2013-11-13 11:53:00
5:53 AM,39.0,24.1,55,30.29,10.0,Calm,Calm,-,N/A,,Clear,0,2013-11-13 12:53:00
6:53 AM,42.1,26.1,53,30.27,10.0,North,6.9,-,N/A,,Overcast,10,2013-11-13 13:53:00
7:53 AM,41.0,28.0,60,30.30,10.0,Calm,Calm,-,N/A,,Overcast,0,2013-11-13 14:53:00
8:53 AM,44.1,28.9,55,30.28,10.0,East,5.8,-,0.00,Rain,Light Rain,80,2013-11-13 15:53:00
9:53 AM,45.0,30.0,56,30.28,10.0,SSW,3.5,-,0.00,,Overcast,210,2013-11-13 16:53:00
10:53 AM,50.0,27.0,41,30.26,10.0,SW,6.9,-,0.00,,Overcast,230,2013-11-13 17:53:00
11:53 AM,53.1,28.0,38,30.24,10.0,SSW,11.5,-,N/A,,Overcast,210,2013-11-13 18:53:00
12:53 PM,53.1,25.0,34,30.22,10.0,SW,21.9,-,N/A,,Overcast,230,2013-11-13 19:53:00
1:53 PM,50.0,27.0,41,30.22,10.0,SW,21.9,-,0.00,Rain,Light Rain,220,2013-11-13 20:53:00
2:53 PM,52.0,30.0,43,30.21,10.0,SW,19.6,-,0.00,,Mostly Cloudy,230,2013-11-13 21:53:00
3:53 PM,53.1,33.1,47,30.21,10.0,SW,20.7,-,0.00,,Scattered Clouds,230,2013-11-13 22:53:00
4:53 PM,48.9,35.1,59,30.23,10.0,WSW,18.4,-,0.00,,Scattered Clouds,240,2013-11-13 23:53:00
5:53 PM,46.0,36.0,68,30.25,10.0,SSW,12.7,-,0.00,,Partly Cloudy,210,2013-11-14 00:53:00
6:53 PM,46.9,36.0,66,30.25,10.0,SW,17.3,-,N/A,,Partly Cloudy,220,2013-11-14 01:53:00
7:53 PM,45.0,35.1,68,30.27,10.0,SW,17.3,-,N/A,,Clear,220,2013-11-14 02:53:00
8:53 PM,44.1,33.1,65,30.27,10.0,SSW,16.1,-,N/A,,Clear,210,2013-11-14 03:53:00
9:53 PM,42.1,32.0,67,30.28,10.0,SW,17.3,-,N/A,,Clear,220,2013-11-14 04:53:00
10:53 PM,39.9,30.9,70,30.26,10.0,SW,13.8,-,N/A,,Clear,220,2013-11-14 05:53:00
11:53 PM,39.0,28.9,67,30.25,10.0,SSW,11.5,-,N/A,,Clear,210,2013-11-14 06:53:00